Search Results

query
RESULTSET
query
  DATETIME DREAM_ID JOURNAL_P SUBJECT USERNAME
1 2014-04-16 00:00:00.0 192784 1 Another Murder Investigation, with two Art Carneys BlueOpossum
2 2014-03-24 00:00:00.0 192237 1 Therapy and Murder notreadytorun
3 2014-03-03 00:00:00.0 191709 1 Murder/Funeral/Grave Robbers london_lad
4 2009-06-09 00:00:00.0 191443 1 Mall Murder. BreStud
5 2014-02-07 00:00:00.0 191170 1 Irritating Murder Investigation BlueOpossum
6 2014-02-06 00:00:00.0 191149 1 Gavin and I Have Committed Murder, Joey is a Cyborg BitterOlives
7 2014-01-27 00:00:00.0 190942 1 Home Movies, Travel, and Murder, BitterOlives
8 2014-01-25 00:00:00.0 190909 1 Murderers, Camping, and Sex BitterOlives
9 2013-12-25 00:00:00.0 190120 1 Murder House SquidLilly
10 2013-12-12 00:00:00.0 189938 1 Charged With Murder magicsparkles
11 2013-11-15 00:00:00.0 189413 1 Strange Dream Sequences: Part 1: The Murders DreamSuite
12 2013-09-06 00:00:00.0 188215 1 House Sale Murderer Haunted Bathroom Objects and 70's Flight Norwig
13 2013-07-03 00:00:00.0 186969 1 Murderer? RachyW
14 2013-06-02 00:00:00.0 186352 1 Wanted for Murder w104mhk
15 2013-06-01 00:00:00.0 186326 1 Tampon, Murderous Rapids, Gay Sex, and a Mowhawk BitterOlives
16 2013-05-13 00:00:00.0 185925 1 Murdererererrr claireburdette
17 2013-05-06 00:00:00.0 185723 1 Murder at the hotel Tangerine
18 2013-04-15 00:00:00.0 185304 1 Class / Tom; Ebony / Murder Whimsical
19 2013-04-09 00:00:00.0 185175 1 Replaying my murder ZOSOaholic
20 2013-03-11 00:00:00.0 184274 1 Murder Tiffy2124
21 2013-02-13 00:00:00.0 183404 1 Murder At Hogwarts realdreamer
22 2013-02-12 00:00:00.0 183315 1 Murder on the Horse Bridge. DanielleBlakeman
23 2013-01-25 00:00:00.0 182685 1 Murderer RainbowsDreams
24 2013-01-18 00:00:00.0 182399 1 Crazy murderer and the tunnels! iirreennee
25 2012-11-03 00:00:00.0 182210 1 Grow-Op, Trains, and Murder BitterOlives
26 2012-12-15 00:00:00.0 181244 1 Murder and Unrequited Love Tantilla
27 2012-10-29 00:00:00.0 180014 1 murdering and lesbian oral binababe
28 2012-10-21 00:00:00.0 179847 1 My son the murderer Snoogley
29 2011-11-28 00:00:00.0 179741 1 Movie set murder mystery Sari
30 2012-10-15 00:00:00.0 179716 1 He murdered his Nephew! Specter
31 2012-08-30 00:00:00.0 178595 1 Youth, Sex and murder Sera
32 2012-08-05 00:00:00.0 177924 1 Beaten, Slashed, & Murdered (3 Dreams) Hummingbird
33 2012-08-03 00:00:00.0 177871 1 Murder and Bad Cheese Lazellia
34 2012-07-24 00:00:00.0 177640 1 Beach murder Peri
35 2012-06-26 00:00:00.0 176701 1 Poltergeist and Pie Loving Axe Murderers Jamestheghost
36 2012-06-22 00:00:00.0 176595 1 Murder for Hire Fuzzyant
37 2012-06-16 00:00:00.0 176398 1 A Murder Most English Fuzzyant
38 2012-05-12 00:00:00.0 175555 1 The curse, the memory loss and the murder (bits and pieces) Yorghos
39 2012-05-03 00:00:00.0 175342 1 Kitten Murder Lazellia
40 2012-04-01 00:00:00.0 174748 1 My First Murder VarrhenSpecter
41 2012-03-28 00:00:00.0 174680 1 A Public Murder VarrhenSpecter
42 2012-01-06 00:00:00.0 174568 1 The Taxi Murder EilidhAnne
43 2012-03-05 00:00:00.0 174080 1 Mysterious Murder jljohnson20
44 2012-02-21 00:00:00.0 173651 1 Back to Basic: Lies, Rape & Murder Hummingbird
45 2012-01-21 00:00:00.0 172631 1 Dog Murder and a Mormon Tavern 7sevensouls7
46 2012-01-13 00:00:00.0 172351 1 Sister's Haircut/Corpse in the Bathroom/Concealing a Murder DuffyJ1111
47 2012-01-10 00:00:00.0 172260 1 Murder F3AR
48 2012-01-02 00:00:00.0 172010 1 Murder in the woods london_lad
49 2011-04-30 00:00:00.0 171697 1 Garry's Mom Murdered xDarkAngelx
50 2011-12-20 00:00:00.0 171599 1 Space Camper, Math and Fork Murder supersapien
51 2011-12-16 00:00:00.0 171453 1 Murder then Wonderland CASSIEAUDREY
52 2011-12-08 00:00:00.0 171265 1 Murder emilyb
53 2011-11-13 00:00:00.0 170534 1 MURDER KloeKadabra
54 2011-11-04 00:00:00.0 170197 1 Pending Murder tturner
55 2011-10-12 00:00:00.0 169793 1 Mass Murder Aliceindreamland
56 2011-10-16 00:00:00.0 169770 1 Murdered dentist, ambulances for blood transfusions junkiecosmonaut
57 2011-10-06 00:00:00.0 169574 1 Mystery & Murder Cafe Hummingbird
58 2011-09-11 00:00:00.0 168793 1 My Uncle Murders Torianne
59 2011-08-31 00:00:00.0 168438 1 Murder/Rape Isazel
60 2011-08-19 00:00:00.0 168110 1 Attempted Mugging, Murder, and the Black House SpanishRose
61 2011-02-20 00:00:00.0 167721 1 Murdering an Old Friend Erecticus
62 2009-09-25 00:00:00.0 167303 1 Murder in Space Isuelt
63 2011-06-29 00:00:00.0 166481 1 Murdering my father ishellhorn
64 2011-06-27 00:00:00.0 166448 1 Gang murder in bedroom then escape to portal in desert L1992
65 2011-06-20 00:00:00.0 166204 1 train station murder magicdog93
66 2011-06-19 00:00:00.0 166157 1 Evil murder 2 bluefox4000
67 2011-06-19 00:00:00.0 166147 1 Evil murder bluefox4000
68 2011-06-13 00:00:00.0 166028 1 Getting Away With Another Murder Lazellia
69 2011-06-12 00:00:00.0 165924 1 Getting Away With Murder Lazellia
70 1998-08-03 00:00:00.0 165770 1 the murder of my mother(nightmare) thewolf
71 2011-05-14 00:00:00.0 165472 1 I Murder Someone... Then I Grow A Dick Awkberg
72 2011-05-14 00:00:00.0 165093 1 "Stone" The Ghost Murderer WhatHappened
73 2011-04-10 00:00:00.0 163965 1 Murder in the Sky Fuzzyant
74 2011-02-23 00:00:00.0 162585 1 Murderer's Wife realdreamer
75 2011-02-20 00:00:00.0 162380 1 Murder Vlucy716
76 2011-02-14 00:00:00.0 162336 1 Hot Pursuit of the "Murderer" Friend named ______! SunSlyer101
77 2011-02-09 00:00:00.0 161999 1 murder kelseya
78 2011-01-26 00:00:00.0 161542 1 Murder Trap Fuzzyant
79 2011-01-25 00:00:00.0 161493 1 Sauna and Murder Vendos
80 2011-01-14 00:00:00.0 161076 1 russell crowe, a kiss, and a murder (please interpret)! otonopinheiro
81 2008-08-25 00:00:00.0 161023 1 I Commit Murder Pwyrdan
82 2010-12-06 00:00:00.0 160767 1 Glue, Fire and Murder kz109
83 2011-01-01 00:00:00.0 160465 1 Murdered...Almost Nightengale
84 2010-12-26 00:00:00.0 160235 1 I'm a murderer SundaiDreamer
85 2010-12-07 00:00:00.0 159693 1 Dragon Antichrist and Bathroom Murders starrface92
86 1997-06-22 00:00:00.0 159663 1 A murder in the house NightmareQueen
87 2010-11-06 00:00:00.0 159064 1 Teenage chatter, extra floors, soldiers' murder Yorghos
88 2010-10-27 00:00:00.0 158862 1 Murder and shit pyrnii
89 2010-10-16 00:00:00.0 158568 1 The Little Girl in the Plaid Dress and the Murderous Ghost ATHANASIA
90 2010-10-08 00:00:00.0 158375 1 Theft Murder Jaylam
91 2008-08-02 00:00:00.0 158324 1 "Bunny Love" the Mass Murderer pinefresh316
92 2010-09-25 00:00:00.0 157984 1 I'm A Murderer mrgranola
93 2010-09-22 00:00:00.0 157918 1 A dream i remember from long ago: The Murders Ihaveadream
94 2010-09-13 00:00:00.0 157601 1 Saving two friends from a murderer-Friday, 20th August 2010 Kaykracke
95 2010-09-13 00:00:00.0 157587 1 Capture and Murder baronessnz
96 2010-09-01 00:00:00.0 157015 1 Murderous Dimension bloodlust15x
97 2009-06-07 00:00:00.0 156272 1 Murderer meddlesomeone
98 2010-08-11 00:00:00.0 156113 1 Murder beat down 8090boy
99 2010-08-11 00:00:00.0 156101 1 Accidental Bunny Murder and Naps BitterOlives
100 2010-08-03 00:00:00.0 155622 1 Axe Murderer bluefox4000
101 2010-08-02 00:00:00.0 155512 1 Hotel Murders furiso1
102 2010-07-27 00:00:00.0 155222 1 My family members being murdered SuperGalSam
103 2010-07-24 00:00:00.0 155069 1 Search for ID robber ending up in my murder Honey
104 2010-07-22 00:00:00.0 154990 1 three brothers and a cunning murderer. SleepyJane
105 2010-07-15 00:00:00.0 154600 1 A Murder Mamakoo
106 2010-07-14 00:00:00.0 154573 1 ***TOADIE TO A MURDEROUS PHARAOH*** HelloDali
107 2010-07-05 00:00:00.0 154238 1 Mysterious Murders bluefox4000
108 2010-07-04 00:00:00.0 154199 1 Murderous thoughts Kacper
109 2010-07-02 00:00:00.0 154141 1 A Murder and A Memory. Darxide
110 2010-06-18 00:00:00.0 153542 1 Murder in Macy's ashehan12
111 2010-06-16 00:00:00.0 153447 1 Attempted Murder Nakrencla
112 2010-06-15 00:00:00.0 153403 1 Hotel Murder Mamakoo
113 2010-06-15 00:00:00.0 153395 1 Murder in Ireland SpanishRose
114 2010-04-10 00:00:00.0 153126 1 Murder at London Province 2krissy2
115 2010-04-10 00:00:00.0 153125 1 Murder at London Province 2krissy2
116 2010-06-06 00:00:00.0 153076 1 Ahh the beach, oh wait, murders, bikers, bridge collapses! Jamestheghost
117 2010-05-26 00:00:00.0 152700 1 Hiding from a female murderer and a bear Enooby
118 2010-03-13 00:00:00.0 152384 1 Real Friends Help Murder People MonkeyMagdalen
119 2010-05-02 00:00:00.0 151530 1 Murderer of Social Life leatra
120 2010-04-28 00:00:00.0 151439 1 Watching An Axe Murderer WanderingAnna
121 2010-04-24 00:00:00.0 151277 1 Murder Mystery TV Programme AngelKJ
122 2010-04-19 00:00:00.0 151012 1 Bus Murder blahblahinc
123 2010-04-18 00:00:00.0 150960 1 murder, dead friends Oceanbabe1492
124 2008-01-10 00:00:00.0 150498 1 Murderer In The Hotel! BritishFreak411
125 2010-04-04 00:00:00.0 150410 1 Murder Will1026
126 2010-03-29 00:00:00.0 150209 1 Back Rub Murderer remihu
127 2010-03-29 00:00:00.0 150194 1 Murderer SarahRose
128 2010-03-01 00:00:00.0 149113 1 Murder Investigation forkgawddess
129 2010-02-13 00:00:00.0 148392 1 Arrested by a family; Witnessed their murder! drvsvs
130 2010-02-09 00:00:00.0 148317 1 The Nazi Murdering Convention dreamchaser
131 2010-02-04 00:00:00.0 147966 1 Murdered With My Family Mamakoo
132 2003-01-21 00:00:00.0 147794 1 Angelina Jolie Helps Me Murder People MonkeyMagdalen
133 2001-03-05 00:00:00.0 147774 1 Satan's Attempts at Murder MonkeyMagdalen
134 2009-08-01 00:00:00.0 147769 1 Murder For Hire, Film Noir Style mschecky
135 2010-02-01 00:00:00.0 147751 1 Murder Mystery hG
136 2010-01-18 00:00:00.0 147152 1 A disfigured Murdering Man LittleDreamer
137 2010-01-08 00:00:00.0 146891 1 Murder Darkprincess123
138 2010-01-07 00:00:00.0 146538 1 Murder in the kitchen. Sybelle
139 2010-01-02 00:00:00.0 146403 1 murders white bird rileydreamer
140 2009-12-09 00:00:00.0 145312 1 Murder/undercover at the Big Brother house london_lad
141 2009-12-01 00:00:00.0 145023 1 Murder? grisisiiiknis
142 2009-05-13 00:00:00.0 144839 1 The Pirate Zombie Murderer Specter
143 2007-04-08 00:00:00.0 144795 1 Zippers & Amorous Murderers alice79
144 2009-10-18 00:00:00.0 143605 1 Murder at the Fashion Designers magick
145 2009-09-14 00:00:00.0 141995 1 Missing girls - murdered by ex boyfriend unity
146 2009-09-13 00:00:00.0 141951 1 murder she wrote [short] ImmortalDreams
147 2007-11-15 00:00:00.0 141672 1 Murder Plot Sekhmet17
148 2006-10-31 00:00:00.0 141634 1 Covering up a Murder Sekhmet17
149 2009-08-21 00:00:00.0 140919 1 Murder Mamakoo
150 2009-08-09 00:00:00.0 140523 1 Strange trees, a Murder Mystery and Hatter Madigan morella33
151 2009-08-06 00:00:00.0 140274 1 Murder in Michigan haux
152 2009-08-05 00:00:00.0 140272 1 Murder plot and robot mom Jade0the0Slayer
153 2009-07-30 00:00:00.0 140012 1 Dreamt of a Murderer ajetron
154 2009-07-30 00:00:00.0 140000 1 Murderer...My Sister realdreamer
155 2009-07-23 00:00:00.0 139656 1 murder and mayhem all night long (illus.) al
156 2009-06-28 00:00:00.0 139291 1 Murder and Board Games freak001
157 2009-07-03 00:00:00.0 138550 1 Nephew is murdered by 2 other nephews/People from Pluto Nocky
158 2009-07-02 00:00:00.0 138490 1 T.V. Special: Murderous Cats and a Dramatic Gorilla Moonlitrain
159 2009-06-18 00:00:00.0 137933 1 murder and Rebecca (illus.)/my brother becomes cruel al
160 2008-10-15 00:00:00.0 137807 1 Murder, out in the middle of nowhere tripp2012
161 2009-06-03 00:00:00.0 137259 1 The Murderer and the Clown(s) MadCapsule
162 2009-05-31 00:00:00.0 137167 1 murder mystery Jade0the0Slayer
163 2001-03-01 00:00:00.0 137135 1 Child murder and guilt Artzbacher
164 2009-05-18 00:00:00.0 136708 1 dreaming of murder ambrosio81477
165 2009-05-15 00:00:00.0 136597 1 Murder Rampage FlightlessEagle
166 2009-05-14 00:00:00.0 136529 1 Murder and Boobs CrystalVision
167 2009-05-01 00:00:00.0 136471 1 Shopping Murder paigeycupcake
168 2009-05-11 00:00:00.0 136422 1 miniature buck (illus.) and solving the Zodiac murders al
169 2007-11-01 00:00:00.0 136386 1 Murderer nightmare kasiya
170 2009-05-08 00:00:00.0 136233 1 All kinds of murder. Jade0the0Slayer
171 2009-04-21 00:00:00.0 136076 1 Murder Lianep
172 2009-04-28 00:00:00.0 135725 1 murder in the attic seafoamsnatch
173 2009-04-21 00:00:00.0 135609 1 Murder Lleu
174 2009-04-25 00:00:00.0 135602 1 Murder in the Island Psiweapon
175 2009-04-15 00:00:00.0 135156 1 murder hakusen
176 2009-04-07 00:00:00.0 134835 1 Lucid Murder NightWarrior1
177 2009-03-21 00:00:00.0 134097 1 YA novelist and murder CrystalVision
178 2009-03-03 00:00:00.0 133336 1 Ballroom Murder rosewailer
179 2001-02-02 00:00:00.0 132973 1 Murder Blai
180 2009-02-10 00:00:00.0 132132 1 Doctor/Murderer Lexa
181 2009-02-08 00:00:00.0 132028 1 Is My Father a Murderer? ShadowCatamount
182 2007-10-15 00:00:00.0 131963 1 "Dr. House" the Murderer Kizzy
183 2009-01-27 00:00:00.0 131441 1 My exboyfriend the murderer birdie
184 2009-01-14 00:00:00.0 130481 1 the fairy princess murders starsprinkles
185 2008-12-22 00:00:00.0 129267 1 The Dance Routine and Attempted Murder ncturnalbynature
186 2008-12-20 00:00:00.0 129235 1 Murder Mermaid wolviechick121
187 2008-12-15 00:00:00.0 128996 1 Murder/Messy Yard stanaker
188 2008-12-04 00:00:00.0 128536 1 A Nightmare About a Murderer, Plus a Trip to Saudi Arabia Muffility12
189 2008-11-26 00:00:00.0 128121 1 Mental murder, or entertainment? HelloDali
190 2008-11-19 00:00:00.0 127638 1 Attempted Murder babysgottemper
191 2008-11-05 00:00:00.0 127148 1 Subway Murder CatsRCool
192 2008-10-27 00:00:00.0 126716 1 Blockbuster thinks I'm a murderer Caleb9849
193 2008-10-16 00:00:00.0 126280 1 Post office counsellor, and toy shop murder KazzieLove
194 2008-10-16 00:00:00.0 126255 1 Scene of a murder london_lad
195 2008-10-13 00:00:00.0 126124 1 Murder Mystery Atia
196 1998-04-17 00:00:00.0 125979 1 Murdered by my Husband and a Stripper Mamakoo
197 1997-10-05 00:00:00.0 125973 1 Brothers solve a murder crime Mamakoo
198 2008-09-24 00:00:00.0 125193 1 Hunted House Murder NefariousAngel
199 2008-09-21 00:00:00.0 125031 1 Silly murder and jizz HelloDali
200 2008-09-13 00:00:00.0 124598 1 Murder and revenge KazzieLove
201 2008-09-07 00:00:00.0 124306 1 Murdering Cowboys 003
202 2008-09-04 00:00:00.0 124137 1 Murderous Teachers KurtoGuy
203 2008-08-28 00:00:00.0 123702 1 Lizzie Borden's GHosT murder ImmortalDreams
204 2008-08-27 00:00:00.0 123611 1 Murder again shedevil666
205 2008-08-20 00:00:00.0 123249 1 The Murder of a Dictator Fuzzyant
206 2008-08-19 00:00:00.0 123143 1 A Murderous Dream BeyondBirthday
207 2008-08-13 00:00:00.0 122929 1 Schoolboy MurderA delawhere
208 2008-08-07 00:00:00.0 122430 1 Murder etc KazzieLove
209 2008-08-02 00:00:00.0 122156 1 "Bunny Love" the Mass Murderer MissSobriety
210 2008-07-13 00:00:00.0 120757 1 Murder He Wrote PostmanCometh
211 2008-07-04 00:00:00.0 120756 1 Murder and a Knife-Fight supersapien
212 2008-06-27 00:00:00.0 120500 1 Baby Murder Case WeepingGuitar
213 2008-06-08 00:00:00.0 119449 1 Gangland murder at QD Jbeals
214 2008-06-04 00:00:00.0 119364 1 Murder In The Bedroom xrugratx
215 2008-06-04 00:00:00.0 119311 1 Nick Hogan framed for murder DuffyJ1111
216 2008-02-21 00:00:00.0 119143 1 Demons, Thieves, and Solving a Murder Frostlight
217 2008-05-26 00:00:00.0 118990 1 Murder a stretcher at school ImmortalDreams
218 2008-05-25 00:00:00.0 118936 1 Minnesota Murder Nennen
219 2008-05-09 00:00:00.0 118408 1 Theft, Murder and Death. Caith
220 2008-05-10 00:00:00.0 118331 1 Bloody Murder [long] ImmortalDreams
221 2008-05-09 00:00:00.0 118297 1 Murder & house by the beach & the ocean hula625
222 2008-04-28 00:00:00.0 118036 1 kidnapped, murder, tortured by eating glass cereal bluezombie
223 2008-05-03 00:00:00.0 118017 1 Murder BASIL
224 2008-05-01 00:00:00.0 117932 1 Witness to a murder Yorghos
225 2008-04-20 00:00:00.0 117543 1 The Murdering Art Gallery mandalauren
226 2006-10-05 00:00:00.0 117271 1 Murder Trial KylieSmiley
227 2008-04-07 00:00:00.0 117063 1 Ghost tries to indict murderers jlindstr
228 2008-03-26 00:00:00.0 116433 1 Murder/Clues BlueHorse
229 2008-03-26 00:00:00.0 116352 1 March 26th - A Murderous Gunman MushroomX
230 2008-03-04 00:00:00.0 115468 1 Murdered girl, Evan's birthday party, pizza Caleb9849
231 2007-10-04 00:00:00.0 115243 1 Murderous Male Conspiracy pakkun
232 2008-02-27 00:00:00.0 115239 1 Murdered at Sea pakkun
233 2008-02-26 00:00:00.0 115147 1 Murder and Sex 003
234 2008-02-26 00:00:00.0 115120 1 Murder in my building Pegasus
235 2008-02-24 00:00:00.0 115033 1 Rat Murder Lazellia
236 2008-02-17 00:00:00.0 114667 1 Murderers and Planes (CSI dream) audiopineapple
237 2008-02-03 00:00:00.0 114080 1 Murderess alexandra
238 2008-02-02 00:00:00.0 114028 1 Road trip murder TrueTraveler
239 2008-01-28 00:00:00.0 113770 1 MURDERRRRRR... or not. amandy032
240 2007-01-30 00:00:00.0 113504 1 Mother Murder stanaker
241 2008-01-17 00:00:00.0 113247 1 Murder 7letters
242 2008-01-14 00:00:00.0 113147 1 Uncovering A Murder AngelJCo
243 2007-10-31 00:00:00.0 113120 1 murderer allyal
244 2008-01-14 00:00:00.0 113076 1 A Murderous Principal Creates His Perfect, Silent School Vorago
245 2007-12-30 00:00:00.0 112363 1 Foreign Countries, Bath Houses, and Murder Lascivious18
246 2007-07-31 00:00:00.0 112321 1 Murder and Gay Pride Hiddenworlds
247 2007-12-29 00:00:00.0 112300 1 Chasing car thieves & murderous board game hula625
248 2007-12-24 00:00:00.0 112076 1 Journal Box and a Murder Pwyrdan
249 2007-12-17 00:00:00.0 111853 1 murder on autopilot and a jealousy pool HelloDali
250 2007-09-18 00:00:00.0 111489 1 Murder in a Train kax99hp
251 2007-12-06 00:00:00.0 111310 1 Creepy Place and a Murder HappyEndings
252 2007-11-16 00:00:00.0 110396 1 Sex and Murder ilovme8989
253 2007-11-10 00:00:00.0 110224 1 Rape and Murder Celeste
254 2007-11-11 00:00:00.0 110170 1 Murder and snakes Yorghos
255 2007-09-12 00:00:00.0 110118 1 Murdered Son? Luft
256 2007-11-08 00:00:00.0 110067 1 Murdered AnJuli914
257 2007-11-07 00:00:00.0 110015 1 Freefalling into beach paradise; Iraq murderer HelloDali
258 2007-11-05 00:00:00.0 109937 1 I Go to Prison for Murder Brezalina85
259 2007-10-23 00:00:00.0 109309 1 Murderous barber & various other incidents hula625
260 2007-10-21 00:00:00.0 109198 1 Pickled cat & murdering my sisters and mother hula625
261 2007-10-12 00:00:00.0 108811 1 Raping a murderous boy & flying & tattoos hula625
262 2007-09-26 00:00:00.0 108176 1 Murder! stillwater
263 2007-09-01 00:00:00.0 107367 1 Murder and cannibalism hula625
264 2007-09-06 00:00:00.0 107284 1 Trapped by a murderer mutantyoyod00m
265 2007-07-22 00:00:00.0 105399 1 The Plan Was Murder stillwater
266 2007-07-09 00:00:00.0 104793 1 Murder...By ME? zara13
267 2007-07-08 00:00:00.0 104767 1 Murder murkywater
268 2007-07-02 00:00:00.0 104533 1 Murder zara13
269 2007-06-09 00:00:00.0 103626 1 Ghosts, gremlins, and avenging my dad's murder hula625
270 2007-05-14 00:00:00.0 102513 1 The evil doll, murder, and the rich community hula625
271 2007-04-22 00:00:00.0 101413 1 Mysterious Murders and the Unsuspected Culprit AverageChick
272 2007-04-18 00:00:00.0 101188 1 Murder Dream Number 3 EvilAngel24
273 2007-04-17 00:00:00.0 101109 1 cops and murder attica
274 2007-04-13 00:00:00.0 100997 1 Murderers DudeYourScrewed
275 2007-04-05 00:00:00.0 100473 1 Murder, Cannibalism, and TV Character mfw1023
276 2007-03-29 00:00:00.0 100126 1 Western Girl Murder jungianightmare
277 2007-03-15 00:00:00.0 99376 1 Murder at Camp Sunset Ashleygirl89
278 2006-12-07 00:00:00.0 98170 1 murder and searching for money kasiya
279 2007-02-17 00:00:00.0 97892 1 Fragments : Murderous Co-workers And A Stern Taskmaster Vorago
280 2007-02-17 00:00:00.0 97858 1 Murder movie. CombatHamster
281 2007-02-16 00:00:00.0 97828 1 Mass Murder doctormodel
282 2007-02-12 00:00:00.0 97615 1 Murder pandaundercover
283 2007-01-30 00:00:00.0 96880 1 Atemp kidnapping and Murder bebechula56
284 2007-01-24 00:00:00.0 96520 1 1930's Murderer Brought to Task supersapien
285 2007-01-20 00:00:00.0 96228 1 Creepy Chinese Murder of young girls- second dream ImmortalDreams
286 2007-01-17 00:00:00.0 96046 1 Unsolved Murder? cursedgoddess
287 2006-11-19 00:00:00.0 95690 1 In Which My Boyfriend Murders a Duckling katu
288 2006-12-22 00:00:00.0 95322 1 Triangular lift, embroidered cloth and a murder Amorillum
289 2007-01-03 00:00:00.0 95019 1 Murder paleenchantress
290 2006-12-30 00:00:00.0 94811 1 Back in high school, on trial for murder Wednesday
291 2006-12-20 00:00:00.0 94323 1 Murder Mystery Party amely
292 2006-12-13 00:00:00.0 94070 1 Murder in the shower school ImmortalDreams
293 2006-12-10 00:00:00.0 93693 1 Under surveillance & the murderer mystery solved. Sampson
294 2006-12-09 00:00:00.0 93651 1 murderer on the bench abyss
295 2003-05-01 00:00:00.0 93169 1 near murder at a concert derelict17
296 2006-12-01 00:00:00.0 93094 1 Two Girl Murderers Pwyrdan
297 2006-11-25 00:00:00.0 92731 1 Murdered With A Golf Club melanie
298 2006-09-12 00:00:00.0 92406 1 murder lenticular
299 2006-11-05 00:00:00.0 91935 1 Murder 101 timedistorts
300 2006-08-22 00:00:00.0 91082 1 Murder and the hand. Amorillum
301 2006-10-23 00:00:00.0 90749 1 moving out and murder- investigation-odd neighbors ImmortalDreams
302 2005-07-27 00:00:00.0 90464 1 Manor Murder Icedevimon13
303 2006-10-15 00:00:00.0 90379 1 Conch Shell Murderer Fuzzyant
304 2006-10-10 00:00:00.0 90210 1 House Hunting/Murder Scene Nightflower
305 2006-09-18 00:00:00.0 89171 1 Investigation Into The Murder Of A Dog Mascot Vorago
306 2006-08-30 00:00:00.0 88415 1 Cats, Murders, and Mysterious Men CNiessl
307 2006-07-04 00:00:00.0 88164 1 Murder mystery Sari
308 2006-08-12 00:00:00.0 87555 1 The murderous time loop amely
309 2004-11-28 00:00:00.0 86456 1 Walk-through with murder Pwyrdan
310 2006-07-10 00:00:00.0 85943 1 Guilty of Murder phil
311 2006-04-11 00:00:00.0 85826 1 murder investigation slvrmoondragon
312 2006-06-24 00:00:00.0 85284 1 Murderous Spiders SnowyTimberWolf
313 1992-06-15 00:00:00.0 84890 1 Murder Sera
314 1997-05-02 00:00:00.0 84595 1 Murder from 1935 Fuzzyant
315 1995-07-23 00:00:00.0 84510 1 Murder and Frame up Job Fuzzyant
316 2005-10-08 00:00:00.0 83804 1 Murder at Megadoomer Mansion dream chapter..? partlycloudysky
317 2006-05-19 00:00:00.0 83672 1 Friend's Murder SaviiGrl
318 2006-05-12 00:00:00.0 83357 1 **A PUBLIX MURDER, THEN BICYCLE REPAIRS** HelloDali
319 2006-05-08 00:00:00.0 83198 1 Not being able to deal with murder ilaya
320 2006-05-01 00:00:00.0 82820 1 Mass murder inside bloody hospital NaraDaska
321 2001-01-01 00:00:00.0 82535 1 old dream - dad murdering mom slvrmoondragon
322 2006-04-24 00:00:00.0 82431 1 Sick with Murder mymessage
323 2006-04-18 00:00:00.0 82181 1 fires & murder reliquette
324 2006-01-24 00:00:00.0 82032 1 Witnessing murder from a train Koyukionna
325 2006-04-11 00:00:00.0 81750 1 murder among fame * ImmortalDreams
326 2006-04-10 00:00:00.0 81716 1 Murder Lita
327 2006-04-05 00:00:00.0 81405 1 The Murder of James Dean indigocherry
328 2006-04-01 00:00:00.0 81284 1 Torture and Murder BuddhaLeDread
329 2006-04-02 00:00:00.0 81219 1 Murder mystery amely
330 2006-03-28 00:00:00.0 80931 1 Part 2 of Famously murdered. ImmortalDreams
331 2006-03-28 00:00:00.0 80930 1 Famously Murdered ImmortalDreams
332 2006-03-23 00:00:00.0 80683 1 Swimming and Murders slvrmoondragon
333 2006-03-23 00:00:00.0 80660 1 Chasing a murderer at my house ElectricOdour
334 2006-03-22 00:00:00.0 80624 1 Murder! Trauma! Attack! leftovers
335 2006-03-22 00:00:00.0 80620 1 Murder the king-from a past life experience? ImmortalDreams
336 2006-03-19 00:00:00.0 80460 1 An old friend, suicide and murder. fumar
337 2006-03-19 00:00:00.0 80441 1 Huge hotels, dancing, and murder keeraa
338 2006-03-11 00:00:00.0 79982 1 Snow, the key and the murders in town london_lad
339 2006-03-07 00:00:00.0 79738 1 "Murder Thy Neighbor. " mom the murderer ImmortalDreams
340 2006-03-02 00:00:00.0 79691 1 Murder at the pool: Part two seaborgium
341 2006-03-06 00:00:00.0 79644 1 Murdered shorty201
342 2006-03-01 00:00:00.0 79561 1 Murder at the pool: Part one seaborgium
343 2006-02-28 00:00:00.0 79392 1 Am I Psychic? visions of a murderer ImmortalDreams
344 2006-02-27 00:00:00.0 79331 1 Murder Rhetorical
345 2006-02-24 00:00:00.0 79155 1 Murder at the Hair salon ToltecWarrior
346 2006-01-16 00:00:00.0 79066 1 Murderer Wood189
347 2006-02-18 00:00:00.0 78646 1 Murder Kortni5
348 2006-02-15 00:00:00.0 78390 1 The murder of me and my future wife kireikoori
349 2006-02-12 00:00:00.0 78371 1 Murderer Who Deserved It Betsy
350 2001-01-17 00:00:00.0 78362 1 Murder and shape-shifting Yorghos
351 2006-02-11 00:00:00.0 78134 1 **MAFIA DOUBLE MURDER** HelloDali
352 2006-02-07 00:00:00.0 77888 1 My First Murder moonstruck
353 2005-11-22 00:00:00.0 77404 1 Mass Murderer Zenith
354 2006-01-29 00:00:00.0 77378 1 chocolate and ax murders mangofandango
355 2006-01-26 00:00:00.0 77294 1 Murder for popularity? ImmortalDreams
356 2006-01-27 00:00:00.0 77244 1 murder suspect prettypinkkitty
357 2006-01-19 00:00:00.0 76872 1 co-worker who's a murder suspect al
358 2005-09-30 00:00:00.0 76581 1 murder (WARNING-violent and gory) juni321
359 2006-01-13 00:00:00.0 76517 1 School Killer- on the loose [murder at school]- ImmortalDreams
360 2006-01-08 00:00:00.0 76216 1 Bloody Murder kaylahcake
361 2006-01-04 00:00:00.0 76037 1 Crushed by Strong Gravity/Snow;Wolf;Murderer/Etc etc... Nocky
362 2005-12-31 00:00:00.0 75791 1 Mansion of Murder- ImmortalDreams
363 2005-12-25 00:00:00.0 75534 1 Graphic murder Britt0488
364 2005-07-24 00:00:00.0 75525 1 Hotel Murders, angelic prophecy, & a Vampire's kiss kasiya
365 2005-12-18 00:00:00.0 75248 1 Camping with the murderer. Glitches
366 2005-12-16 00:00:00.0 75128 1 Christmas murder Alison13
367 2005-12-15 00:00:00.0 75116 1 gruesomely murdered by my brother al
368 2005-11-13 00:00:00.0 74938 1 Murder in Grandma's House and Horse Drawn Wagons slvrmoondragon
369 2005-11-28 00:00:00.0 74925 1 Hotel Murders slvrmoondragon
370 2005-12-08 00:00:00.0 74747 1 [entry 2 - murderous woman] faeryboots
371 2005-12-05 00:00:00.0 74642 1 Blur of a murderer Keir
372 2005-08-07 00:00:00.0 74378 1 The one with the murder… angelbabygurl
373 2005-11-26 00:00:00.0 74267 1 A murder by a friend london_lad
374 2005-11-27 00:00:00.0 74206 1 Corpse murder leeminor7
375 2005-11-26 00:00:00.0 74177 1 the murderous ghost juni321
376 2005-11-19 00:00:00.0 73901 1 Mass murder DarwinGreen
377 2005-11-18 00:00:00.0 73830 1 Murder in the Suburbs. BoogaJWooga
378 2005-11-10 00:00:00.0 73573 1 Chasing after a murderer Nocky
379 2005-11-07 00:00:00.0 73375 1 Suicide or murder-? I feel the victem tragedy- ImmortalDreams
380 2005-11-02 00:00:00.0 73165 1 I'm an old woman who has murdered her elderly roommate. al
381 2005-10-30 00:00:00.0 73069 1 Murder in lucidity- state- ImmortalDreams
382 2005-10-13 00:00:00.0 72561 1 Dream Remnant: Escaping Murderer Nocky
383 2005-10-05 00:00:00.0 72021 1 Christmas, Movies and a Murder catherar
384 2005-09-20 00:00:00.0 71329 1 serial rapist/ murderer ybear
385 2005-09-17 00:00:00.0 71275 1 Mass Murder Lita
386 2005-09-06 00:00:00.0 70511 1 Murder abounds in all places ImmortalDreams
387 2005-09-06 00:00:00.0 70496 1 Murder Mystery, guest starring Euan Rhetorical
388 2005-09-06 00:00:00.0 70491 1 running from my murderer colleague ElectricOdour
389 2005-09-03 00:00:00.0 70400 1 Unknowing Murder doppleganger68
390 2005-08-24 00:00:00.0 69988 1 Contemplating Murder (illus.) melanie
391 2005-08-26 00:00:00.0 69907 1 murder charlottebar
392 2005-08-24 00:00:00.0 69822 1 MurderMysteryParty -> BostonHeaven Megaman
393 2005-08-22 00:00:00.0 69731 1 Murdered CasualtyofLife
394 2005-07-24 00:00:00.0 69551 1 Murder at Grandparents' House JunieBug08
395 2005-08-09 00:00:00.0 68973 1 movie/murder dream slvrmoondragon
396 2005-03-27 00:00:00.0 67845 1 The Apartment Murders whitenoiz
397 2005-06-06 00:00:00.0 67631 1 murdered juni321
398 2005-07-21 00:00:00.0 67536 1 Murderers MtDewWolf
399 2005-07-19 00:00:00.0 67507 1 Father murders brother (only not really) universalcross
400 2005-07-09 00:00:00.0 66766 1 murder bizarromurphy
401 2005-07-06 00:00:00.0 66721 1 murder at pvpa yamii
402 2005-07-06 00:00:00.0 66626 1 murder house SwitchBladie
403 2005-02-23 00:00:00.0 66569 1 getting away with murder kasiya
404 2005-06-29 00:00:00.0 66246 1 Murder/Suicide sweetnsassy
405 2005-06-17 00:00:00.0 65638 1 murder, death, and spirits leahcarachael
406 2005-06-11 00:00:00.0 65493 1 Cat Commercial/Crying in shack/Fighting on Bus/Bamboo Murder Nocky
407 2005-06-12 00:00:00.0 65396 1 A Murder, a Funeral, and another Death oversight
408 2005-06-01 00:00:00.0 64938 1 College Murder Dream rbfbeerguy
409 2005-06-01 00:00:00.0 64756 1 Double Murder drippingxrazor
410 2005-05-26 00:00:00.0 64483 1 murder realfolkblues
411 2005-05-25 00:00:00.0 64417 1 I'm a murderer hockeyloverdb
412 2005-02-26 00:00:00.0 64395 1 Murder In Dreamland billy
413 2005-05-22 00:00:00.0 64261 1 Murder and Mayhem atomicroses
414 2005-05-19 00:00:00.0 64113 1 all crazy hazy murder scene pung
415 2004-05-17 00:00:00.0 64015 1 solving murder lalala
416 2005-05-10 00:00:00.0 63695 1 Psycho sweet factory/The Hypodermic Needle Murderer BelleDeJour
417 2005-05-03 00:00:00.0 63347 1 Vehicles come alive and become murderous;hiding and running Nocky
418 2005-04-28 00:00:00.0 63050 1 A Meal, Murder Suicide And Another Strange Lucid Experience Vorago
419 2005-04-21 00:00:00.0 62701 1 Murder and Fire illusion
420 2005-04-21 00:00:00.0 62676 1 Prime Suspect In A School Murder lebeefcake
421 2005-04-19 00:00:00.0 62635 1 murder, kissing, and getting lost in a restaurant seaborgium
422 2005-04-07 00:00:00.0 61791 1 Fucked up nightmare about murdering Mypurplelife
423 2005-03-30 00:00:00.0 61345 1 Phil, Nik, Murder? Pegasus
424 2005-03-29 00:00:00.0 61284 1 Murder traitah
425 2005-03-18 00:00:00.0 60591 1 We murdered two cops...haunted us forever unLucidSleepR
426 2005-03-03 00:00:00.0 60487 1 Just Your Friendly Murder.. Tawny
427 2005-03-15 00:00:00.0 60419 1 Murder, movies, and an amusement park twilight
428 2005-03-15 00:00:00.0 60371 1 Murder story spookychemist
429 2005-03-09 00:00:00.0 60112 1 Suicide, murder or accident and the mystery Sera
430 2005-01-25 00:00:00.0 58995 1 murder bluezombie
431 2005-02-20 00:00:00.0 58891 1 Murderer Yunalesca
432 2005-01-29 00:00:00.0 58874 1 Murderous Fun With Mr. Julian Sark Machtpolitik
433 2005-02-20 00:00:00.0 58845 1 Murderers and rapists :S Mypurplelife
434 2005-02-18 00:00:00.0 58767 1 Murder g1nny
435 2005-02-08 00:00:00.0 58613 1 Sally's Murder FloatingMonkey
436 2005-02-01 00:00:00.0 57531 1 Church murder haux
437 2005-01-10 00:00:00.0 56006 1 Murder kjg8erz8
438 2005-01-09 00:00:00.0 55696 1 Murder Of A Therapist Iame
439 2004-07-05 00:00:00.0 55627 1 murder she committed dreamsongs
440 2004-12-28 00:00:00.0 54688 1 Murderous Cat Fan sawyersgirl
441 2004-12-26 00:00:00.0 54489 1 Murder miles
442 2004-12-04 00:00:00.0 54265 1 Murderer!!! sleepbeautiful
443 2004-12-20 00:00:00.0 54174 1 Psycho Nail Murderer mrsrivers
444 2004-12-12 00:00:00.0 53685 1 Murder in the Beachplace LadyDelirium7
445 2004-12-10 00:00:00.0 53571 1 love affairs and murders slvrmoondragon
446 2000-08-07 00:00:00.0 53382 1 The Murderous Sister lindablueeyes
447 2004-12-05 00:00:00.0 53284 1 Seeing murder of child, was chased and girl kidnapped Nocky
448 2004-12-05 00:00:00.0 53190 1 murder on the ranch SkyeDreamer
449 2004-11-29 00:00:00.0 52845 1 Murderous Martians knudson
450 2004-11-24 00:00:00.0 52498 1 Superdetective investigating terrorists, murderess, redheads filmstills
451 2004-11-18 00:00:00.0 52077 1 Axe Murderer 7094
452 2004-11-11 00:00:00.0 51622 1 Penny Murders acornpeters
453 2004-11-08 00:00:00.0 51377 1 Searching for My Son/ Crazy Bus Murderer niccat
454 2004-11-07 00:00:00.0 51292 1 Investigating A Murder/ Men with Bad Masks niccat
455 2004-11-05 00:00:00.0 51268 1 Parrot and Murder Anael
456 2004-11-06 00:00:00.0 51202 1 Murder Most Foul stillwater
457 2004-10-22 00:00:00.0 50715 1 Accused of Murder?! niccat
458 2004-09-30 00:00:00.0 50087 1 Murder // High School // Underfed smokespirit
459 2004-10-13 00:00:00.0 50072 1 Fragments : Video Games And A Demonic Murder Mystery Vorago
460 2004-10-13 00:00:00.0 50053 1 Gu gets murdered london_lad
461 2004-10-08 00:00:00.0 49795 1 Marrying a murder Leehela
462 2004-10-06 00:00:00.0 49660 1 Ghost Murderer Leehela
463 2004-09-30 00:00:00.0 49538 1 Sent back into recent past to deter mass murders in school. Nocky
464 2004-09-27 00:00:00.0 49164 1 Flirting with a philanderer, provoking a murderer clovered
465 2004-09-14 00:00:00.0 48424 1 A Case of Murder BlackCoffee
466 2004-08-23 00:00:00.0 47334 1 theft, murder, and moving SkyeDreamer
467 2004-08-19 00:00:00.0 47176 1 Tornados and murder Bubblykitty
468 2004-08-09 00:00:00.0 46634 1 Rape & Murder In The Woods TheMindOfMusic
469 2004-08-06 00:00:00.0 46382 1 General fear of a murderous man. Nocky
470 2004-08-05 00:00:00.0 46321 1 murderer Quisty
471 2004-08-03 00:00:00.0 46172 1 Mass Murder Carys
472 2004-07-22 00:00:00.0 45334 1 murder/stress osodecarino
473 2004-03-26 00:00:00.0 45094 1 Murder of Friends darko
474 2004-07-19 00:00:00.0 45037 1 Murderer Magica
475 2004-07-18 00:00:00.0 44987 1 tanya murder x0acid
476 2003-12-22 00:00:00.0 43360 1 Three murdered friends and a lake svenskasfinx
477 2004-06-15 00:00:00.0 43035 1 murder? LaDiosa
478 2004-05-31 00:00:00.0 42080 1 murder between friends missknives
479 2004-05-31 00:00:00.0 42058 1 Neighbor murdered. annaleigh
480 2004-05-30 00:00:00.0 42042 1 Murderer Blackwolf777
481 2004-05-24 00:00:00.0 41711 1 Pretzel is a Murderer! Muffility12
482 2004-05-20 00:00:00.0 41426 1 I was murdered angelicchica
483 2004-05-18 00:00:00.0 41325 1 murder bluezombie
484 2004-05-13 00:00:00.0 41050 1 A Murder benni
485 2004-05-12 00:00:00.0 40991 1 shopping and murder SkyeDreamer
486 2004-05-05 00:00:00.0 40643 1 Murder, Painful Bubbles, and Bathrooms meteroa07
487 2004-05-02 00:00:00.0 40470 1 Dad , murdered :-/ Pegasus
488 2004-05-01 00:00:00.0 40410 1 Alyssa's Murder lynsiex
489 2004-03-01 00:00:00.0 40336 1 murders agentclover
490 2004-04-26 00:00:00.0 40222 1 murderess icon jomc
491 2004-04-27 00:00:00.0 40211 1 Sliding in snow - Nakedness - Murdering The Simpsons Nocky
492 2004-04-25 00:00:00.0 40042 1 Murder mooshypanda
493 2004-04-21 00:00:00.0 39810 1 A Hazy Murder Rhetorical
494 2004-04-20 00:00:00.0 39765 1 Disturbing Tidbits about Communists and Murder UPDATED Muffility12
495 2003-10-18 00:00:00.0 39633 1 Murderous friend mimi
496 2004-04-10 00:00:00.0 39224 1 Murders of crows haux
497 2004-03-31 00:00:00.0 38596 1 Murder and a Cave Muffility12
498 2004-03-30 00:00:00.0 38514 1 murder and Death matt101
499 2004-03-13 00:00:00.0 37339 1 Not Afraid Of A Murderer CaptivatingOne
500 2004-02-24 00:00:00.0 36163 1 Murder in some Weird Place benni
501 2004-02-14 00:00:00.0 35469 1 A Murder Mystery liquifiedhatred
502 2004-02-06 00:00:00.0 34888 1 Prostitution and Murder/Suicide Becka16
503 2004-01-28 00:00:00.0 34674 1 Mr. K-Murderer twilighttodusk
504 2004-02-01 00:00:00.0 34586 1 Murder On A Bridge Into Puke Water Luckistarz367
505 2003-09-01 00:00:00.0 34546 1 Love and Murder Thena
506 2001-06-19 00:00:00.0 33601 1 Axe Murder LDSchica
507 2004-01-19 00:00:00.0 33569 1 Old roomies and murder? Spiced77
508 2004-01-19 00:00:00.0 33552 1 Gruesome Murder (not for the weak of stomach) aeondrift
509 2004-01-05 00:00:00.0 32492 1 murder, death, kill rockstar
510 2003-12-30 00:00:00.0 32111 1 The Aunt of the Murdered Baby halfpint
511 2003-12-18 00:00:00.0 31415 1 Predicting a Murder CaptivatingOne
512 2003-12-11 00:00:00.0 30820 1 Murder In The City shredder09
513 2003-12-08 00:00:00.0 30555 1 double murder immortaldream
514 2003-12-05 00:00:00.0 30334 1 Missing/Murdered Girl CaptivatingOne
515 2003-11-20 00:00:00.0 29467 1 Murder For Fun Wizard
516 2003-11-10 00:00:00.0 29182 1 Texas Chain Murders In A Building iridescent06
517 2003-11-10 00:00:00.0 28870 1 Murder in the graveyard shed aeondrift
518 2003-11-03 00:00:00.0 28424 1 Murder at camp(?) AquaticDeity
519 2003-11-02 00:00:00.0 28366 1 [R] Rape And Murder tajiah
520 2003-10-11 00:00:00.0 27160 1 murder??? trippflip
521 2003-10-05 00:00:00.0 26727 1 solving murders, cats, tony stalkher
522 2003-10-02 00:00:00.0 26562 1 The Math Teacher's a Murderer! Muffility12
523 2003-09-26 00:00:00.0 26457 1 Closet Murder IamReminiscing
524 2003-09-20 00:00:00.0 25799 1 Stick Figure Murder farfie
525 2003-09-16 00:00:00.0 25622 1 Murderer on the run. Bewitched
526 2003-09-06 00:00:00.0 25067 1 Murder she wrote blackrose9
527 2003-09-03 00:00:00.0 24917 1 Neighbor murderers unLucidSleepR
528 2003-09-03 00:00:00.0 24876 1 Murder BritaChica
529 2003-08-30 00:00:00.0 24623 1 Murder in the garage mypsychosis
530 2003-08-04 00:00:00.0 24606 1 gender fluidity in sex // murder in self-defense alsatia
531 2003-08-15 00:00:00.0 24602 1 morphing apartments and witnessing murder alsatia
532 2003-08-29 00:00:00.0 24576 1 Tennessee Williams, the mass murderer Mierdenwa
533 2003-08-27 00:00:00.0 24458 1 Good looking murderer mypsychosis
534 2003-08-17 00:00:00.0 24250 1 Murders on a Cruise Ship Muffility12
535 2003-08-22 00:00:00.0 24098 1 murderer? bartosia
536 2003-08-20 00:00:00.0 23974 1 Murdering Ghost in Area51 Arisu
537 1993-08-16 00:00:00.0 23036 1 Mashed Potatoes Murder! Gravy Invades Water Tanks! AnglofDrkns
538 2003-08-05 00:00:00.0 22936 1 Murder Witness MtDewWolf
539 2003-08-02 00:00:00.0 22676 1 attempt a murder and a trial farfie
540 2003-07-31 00:00:00.0 22515 1 The Africa Murder Scam Fuzzyant
541 2003-07-28 00:00:00.0 22373 1 A Murder and A Suicide RubyRose
542 2003-07-27 00:00:00.0 22164 1 Super Heroes, a Courtesan, and Toddler Murder Lynn
543 2003-07-25 00:00:00.0 22028 1 Murderer TemporalBandit
544 2003-07-20 00:00:00.0 21694 1 Jordan's A Murderer Elayner27
545 2003-07-17 00:00:00.0 21457 1 Attempted Murders and Murders hottiegurl16
546 2003-07-17 00:00:00.0 21433 1 Murder on the Second Floor Elfhelm
547 2003-07-16 00:00:00.0 21397 1 Me... A Murderer... gleechumber
548 2003-07-14 00:00:00.0 21178 1 Murder Mystery Jon
549 1997-05-19 00:00:00.0 21079 1 Family murdered in childhood home melabonbon
550 2003-07-11 00:00:00.0 20974 1 Murder icyrain
551 2003-07-06 00:00:00.0 20602 1 Sister's death, Steph's a murderer. Pegasus
552 2003-06-29 00:00:00.0 20050 1 confused murders dhuck4
553 2003-01-01 00:00:00.0 19992 1 murdering a stranger stalkher
554 2003-06-24 00:00:00.0 19661 1 The Murderer Alexander
555 2002-11-02 00:00:00.0 19085 1 J as a Murderer Sarahime
556 2003-06-14 00:00:00.0 19007 1 The Murder of an Old Woman ShadaWolf
557 2003-06-05 00:00:00.0 18740 1 Mail-Order Murder tehuti
558 2003-06-08 00:00:00.0 18583 1 Murder Mystery rahnekat
559 2003-05-21 00:00:00.0 17399 1 A murder divinator
560 2003-05-15 00:00:00.0 17091 1 Reptile Murder vidgal
561 2002-02-03 00:00:00.0 16796 1 murder and listlesness breakfast
562 2003-05-08 00:00:00.0 16755 1 Murder Music1
563 2003-05-03 00:00:00.0 16603 1 Grandad the murderer *Jan dreem
564 2003-04-29 00:00:00.0 16464 1 Murder egoripper
565 2003-04-21 00:00:00.0 15552 1 Inuyasha & The Mystery Of The Swamp Murders tehuti
566 2003-04-20 00:00:00.0 15455 1 An ATM Murder CasualtyofLife
567 2003-04-20 00:00:00.0 15453 1 Framed Murder Story in a Box ShadaWolf
568 2003-04-17 00:00:00.0 15296 1 Murder trail Elemental_angel
569 2003-04-15 00:00:00.0 15122 1 Flying to Australia & Murder webdiva
570 2003-04-12 00:00:00.0 14887 1 Murder in the family robsdoll
571 2003-04-11 00:00:00.0 14810 1 Bloody murder hAyLeY
572 2003-04-02 00:00:00.0 14171 1 Witnessing Murder CaptivatingOne
573 1996-08-05 00:00:00.0 13137 1 Murder In The Sacred Circle tehuti
574 2003-03-14 00:00:00.0 12921 1 Murder downstairs london_lad
575 2001-11-11 00:00:00.0 12842 1 tiles, rodents, and murder bizzarenikk
576 2003-03-02 00:00:00.0 12373 1 Murder/Suicide DancingShamrock
577 2003-02-27 00:00:00.0 11786 1 Taxes, Fear, & Murder Kailin
578 2003-02-27 00:00:00.0 11738 1 Kirstie Alley's murder MacNcheez
579 2000-08-04 00:00:00.0 11082 1 Murder On The Train tehuti
580 2003-02-17 00:00:00.0 10781 1 My Mother the Murderer ShadaWolf
581 2003-02-13 00:00:00.0 10414 1 Evil spirt/murder. Nicole16
582 2003-02-10 00:00:00.0 10219 1 The murders Nicole16
583 2003-02-09 00:00:00.0 10156 1 my mum wants to murder me? alena
584 2003-02-06 00:00:00.0 10037 1 Greyhounds and a murderous mom toric13
585 2003-01-31 00:00:00.0 9603 1 Murdered in school? Johanna
586 2003-01-29 00:00:00.0 9496 1 The Ax Murderer c_n12
587 2002-06-27 00:00:00.0 9336 1 Murder? mistakentragedy
588 2003-01-25 00:00:00.0 9227 1 Murder in a semi circle london_lad
589 2002-12-17 00:00:00.0 7516 1 Celebrity Murder Tinitsuatl
590 2002-11-10 00:00:00.0 6334 1 Pre-planned murder CaptivatingOne
591 2002-10-25 00:00:00.0 5852 1 A murder in the middle of nowhere Elemental_angel
592 2002-10-20 00:00:00.0 5724 1 Murder and Lies xbloodykissesx
593 2002-09-29 00:00:00.0 5377 1 Murder In A School Kailin
594 2002-09-09 00:00:00.0 5085 1 Serial Murders Dangerous
595 2002-09-11 00:00:00.0 5063 1 ax murderer Kendrah
596 2002-06-27 00:00:00.0 3965 1 Murder? xGeeKx
597 2002-04-17 00:00:00.0 2578 1 I married a javalin murderer! ? kasada
598 2002-03-16 00:00:00.0 2013 1 murder in a submersible and fishtailing in the snow al
599 2001-11-11 00:00:00.0 1291 1 The murder/kid napper sexy_dreamer
600 1997-05-02 00:00:00.0 1141 1 Ghouls (dream1), Murder 1935 (dream2), Split Dragon Hide Fuzzyant
CACHED false
EXECUTIONTIME 506
SQL SELECT a.dream_id, a.subject, a.datetime, b.journal_p, b.username from dj_dreams a inner join dj_members b on a.member_id = b.member_id where 0=0 AND (CONTAINS (a.dream, '"murder"') OR subject like '%murder%') AND journal_P = ? AND a.private = ? order by a.dream_id DESC
SQLPARAMETERS
array
1 1
2 0
600 Results were returned based on your search choicesand/or your keyword murder.

You may sort your results by dream, date, or user simply by
clicking on the words dream, date, or user.

Dream Date User
Another Murder Investigation, with two Art Carneys 04/16/14 BlueOpossum
Therapy and Murder 03/24/14 notreadytorun
Murder/Funeral/Grave Robbers 03/03/14 london_lad
Mall Murder. 06/09/09 BreStud
Irritating Murder Investigation 02/07/14 BlueOpossum
Gavin and I Have Committed Murder, Joey is a Cyborg 02/06/14 BitterOlives
Home Movies, Travel, and Murder, 01/27/14 BitterOlives
Murderers, Camping, and Sex 01/25/14 BitterOlives
Murder House 12/25/13 SquidLilly
Charged With Murder 12/12/13 magicsparkles
Strange Dream Sequences: Part 1: The Murders 11/15/13 DreamSuite
House Sale Murderer Haunted Bathroom Objects and 70's Flight 09/06/13 Norwig
Murderer? 07/03/13 RachyW
Wanted for Murder 06/02/13 w104mhk
Tampon, Murderous Rapids, Gay Sex, and a Mowhawk 06/01/13 BitterOlives
Murdererererrr 05/13/13 claireburdette
Murder at the hotel 05/06/13 Tangerine
Class / Tom; Ebony / Murder 04/15/13 Whimsical
Replaying my murder 04/09/13 ZOSOaholic
Murder 03/11/13 Tiffy2124
Murder At Hogwarts 02/13/13 realdreamer
Murder on the Horse Bridge. 02/12/13 DanielleBlakeman
Murderer 01/25/13 RainbowsDreams
Crazy murderer and the tunnels! 01/18/13 iirreennee
Grow-Op, Trains, and Murder 11/03/12 BitterOlives
Murder and Unrequited Love 12/15/12 Tantilla
murdering and lesbian oral 10/29/12 binababe
My son the murderer 10/21/12 Snoogley
Movie set murder mystery 11/28/11 Sari
He murdered his Nephew! 10/15/12 Specter
Youth, Sex and murder 08/30/12 Sera
Beaten, Slashed, & Murdered (3 Dreams) 08/05/12 Hummingbird
Murder and Bad Cheese 08/03/12 Lazellia
Beach murder 07/24/12 Peri
Poltergeist and Pie Loving Axe Murderers 06/26/12 Jamestheghost
Murder for Hire 06/22/12 Fuzzyant
A Murder Most English 06/16/12 Fuzzyant
The curse, the memory loss and the murder (bits and pieces) 05/12/12 Yorghos
Kitten Murder 05/03/12 Lazellia
My First Murder 04/01/12 VarrhenSpecter
A Public Murder 03/28/12 VarrhenSpecter
The Taxi Murder 01/06/12 EilidhAnne
Mysterious Murder 03/05/12 jljohnson20
Back to Basic: Lies, Rape & Murder 02/21/12 Hummingbird
Dog Murder and a Mormon Tavern 01/21/12 7sevensouls7
Sister's Haircut/Corpse in the Bathroom/Concealing a Murder 01/13/12 DuffyJ1111
Murder 01/10/12 F3AR
Murder in the woods 01/02/12 london_lad
Garry's Mom Murdered 04/30/11 xDarkAngelx
Space Camper, Math and Fork Murder 12/20/11 supersapien

Search Again